1st Responders/1st Detectors/Storm Spotters Weather Summary for Mason County, KY

Forecast Maps


Reg. NEXRAD Animation


National Fire Danger: Day 1 & 2 Map

Current NWS Watch/Warnings

SPC Convective Day 1 Outlook


Day 2 Outlook

(Click images to enlarge|Page will refresh every 5 minutes)
UK Ag. Weather Center Desktop Severe Weather Service[HERE]
Mason County, KY Hazardous Weather Outlook Webcast
(9 AM to 9 PM Mon-Fri)
[Fast]
[Dial-up]


UKAWC 1st Detectors/1st Responders Precision Weather Forecast For MASON County, Kentucky
(based on the NWS County Digital Forecast)

ISSUED AT 17:00 UTC ON FRIDAY MAR 22 2019
DAY FRIDAY
EDT 3HR 2P 3P 4P 5P 6P 7P
MAX/MIN -- -- -- -- -- 49°
TEMP 49° 49° 47° 47° 45° 43°
SKY COVER 79% 72% 65% 59% 52% 45%
Clouds
DEW PT 31° 31° 29° 29° 29° 27°
RH 49% 47% 49% 51% 53% 53%
POP 12HR -- -- -- -- -- --
RAIN/SNOW (liq.equ) 0.00in -- -- -- -- --
SNOWFALL 0in -- -- -- -- --
WIND SPEED(MPH) 17 17 18 17 16 15
WIND Gust(MPH) 31 31 31 30 24 21
WIND DIR NW NW NW NW NW NW
DEW -- -- -- -- -- --
HeatIndex 49 49 47 47 37 36
Rain Showers -- -- -- Slight Chance -- --
WIND CHILL -- -- -- -- 38° 36°
SPRAY COND
DRY COND
LIVESTOCK COLDSTRESS



DAY SATURDAY SUNDAY MONDAY TUESDAY WEDNESDAY THURSDAY
EDT 6HR 8P 9P 10P 11P MIDN 1A 2A 3A 4A 5A 6A 7A 8A 9A 10A 11A NOON 1P 2P 3P 4P 5P 6P 7P 8P 9P 10P 11P MIDN 1A 2A 5A 8A 11A 2P 5P 8P 2A 8A 2P 8P 2A 8A 2P 8P 2A 8A 2P 8P 2A 8A 2P 8P
MAX/MIN -- -- -- -- -- -- -- -- -- -- -- -- 25° -- -- -- -- -- -- -- -- -- -- 50° -- -- -- -- -- -- -- -- 31° -- -- 59° -- -- 45° 52° -- -- 27° 47° -- -- 27° 56° -- -- 36° 65° --
TEMP 41° 40° 38° 38° 36° 34° 32° 31° 31° 29° 27° 25° 25° 29° 31° 36° 40° 45° 47° 49° 50° 50° 50° 49° 45° 43° 40° 38° 36° 36° 36° 34° 34° 47° 58° 58° 54° 49° 47° 49° 43° 32° 27° 43° 40° 31° 27° 52° 47° 40° 38° 61° 58°
SKY COVER 38% 33% 28% 24% 19% 14% 9% 8% 8% 7% 7% 6% 6% 5% 3% 2% 2% 2% 2% 2% 2% 2% 2% 2% 2% 4% 6% 9% 11% 13% 15% 34% 61% 62% 78% 79% 90% 95% 100% 90% 34% 6% 4% 4% 9% 13% 6% 4% 12% 22% 30% 37% 57%
Clouds
DEW PT 27° 27° 25° 25° 25° 25° 25° 25° 23° 23° 22° 22° 22° 22° 22° 22° 20° 20° 20° 20° 20° 20° 22° 22° 22° 22° 22° 22° 23° 23° 25° 25° 25° 29° 34° 36° 40° 43° 45° 43° 32° 22° 18° 20° 22° 22° 22° 27° 31° 31° 32° 38° 40°
RH 54% 57% 58% 61% 66% 69% 72% 75% 75% 78% 81% 88% 84% 71% 66% 56% 44% 37% 33% 31% 30% 30% 31% 35% 39% 44% 48% 53% 58% 58% 63% 66% 69% 49% 40% 43% 61% 83% 89% 79% 67% 63% 65% 40% 48% 72% 78% 39% 53% 73% 81% 42% 49%
POP 12HR 18% -- -- -- -- -- -- -- -- -- -- -- 0% -- -- -- -- -- -- -- -- -- -- -- 0% -- -- -- -- -- -- -- 3% -- -- -- 31% -- 78% -- 77% -- 8% -- 3% -- 3% -- 3% -- 5% -- 7%
RAIN/SNOW (liq.equ) 0.01in -- -- -- -- -- 0.00in -- -- -- -- -- 0.00in -- -- -- -- -- 0.00in -- -- -- -- -- 0.00in -- -- -- -- -- 0.00in -- 0.00in -- 0.00in -- 0.04in 0.04in 0.10in -- -- -- -- -- -- -- -- -- -- -- -- -- --
SNOWFALL 0in -- -- -- -- -- 0in -- -- -- -- -- 0in -- -- -- -- -- 0in -- -- -- -- -- 0in -- -- -- -- -- 0in -- 0in -- 0in -- 0in 0in 0in -- -- -- -- -- -- -- -- -- -- -- -- -- --
WIND SPEED(MPH) 13 10 9 8 7 7 7 6 6 6 5 5 5 5 5 5 5 5 5 6 6 5 5 2 1 1 1 1 1 2 2 2 2 6 7 7 7 7 6 8 13 9 9 8 7 5 2 6 2 6 6 13 7
WIND DIR NW NW NW NW NW NW NW NW NW NW NW NW NW NW NW NW NW NW NW NW NW NW NW NW NW N E E E SE SE SE SE S SW SW S S SW N NE NE NE NE N NE NE SE SE S S SW S
HeatIndex 35 34 32 31 29 27 26 26 25 23 22 20 20 25 27 32 38 42 47 49 50 50 50 49 45 43 40 38 36 34 33 32 32 47 58 58 54 49 47 49 36 24 18 38 35 26 24 52 47 35 33 61 58
Rain Showers -- -- -- -- -- -- -- -- -- -- -- -- -- -- -- -- -- -- -- -- -- -- -- -- -- -- -- -- -- -- -- -- -- -- -- Slight Chance Chance Chance Definite Chance -- -- -- -- -- -- -- -- -- -- -- -- --
WIND CHILL 34° 34° 32° 32° 30° 28° 26° 25° 25° 23° 22° 19° 19° 24° 26° 32° 37° 43° -- -- -- -- -- -- -- -- -- -- -- -- -- -- -- -- -- -- -- -- -- -- 36° 24° 18° 38° 35° 26° -- -- -- 36° 34° -- --
SPRAY COND
DRY COND
LIVESTOCK COLDSTRESS

Click on individual weather variable above in left-hand column (ie., TEMP, RH, QPF 12HR) to view state forecast maps






NWS 48 Hr. Forecast Maps,

Regional Hourly Observations For MASON County, Kentucky
Issued at 100 PM EDT FRI MAR 22 2019
...CENTRAL KENTUCKY...
  
CITY           SKY/WX    TMP DP  RH WIND       PRES   REMARKS
MT STERLING*     N/A     52  36  54 W13G28    29.96F                  
FLEMING/MASON* CLOUDY    48  33  56 NW15      29.95R                  
DANVILLE*        N/A     54  34  47 NW15G24   30.01R                  
LEXINGTON        N/A     53  36  52 W18G25    29.97F                  
FRANKFORT        N/A     54  36  50 W14G24    29.98S                  
LOUISVILLE       N/A     57  34  41 W15G24    30.02S                  
LEBANON*         N/A     54  36  50 W14G26    30.02S                  
GLASGOW*         N/A     57  33  41 W14G22    30.06S                  
BOWLING GREEN    N/A     60  33  36 W14G23    30.07F                  


Current NOWCAST not available:
Nowcasts are not issued routinely during fair weather. Only when
precipitation or other significant weather is occuring in this county will these
forecasts be issued. Currently, there is no short term forecast in effect.


Fire Weather Forecast For MASON County, KY
Provided by the National Weather Service:

Issued at: Fri Mar 22 13:05:01 EDT 2019

CLOUD COVER                     PCldy       MClear        Clear
PRECIP TYPE                      None         None         None
CHANCE PRECIP (%)                   0            0            0
TEMP (24H TREND)              49 (-1)     25 (-12)           51
RH % (24H TREND)             44 (-26)      87 (-3)           29
20FTWND-AM(MPH)              W 10 G19                   Lgt/Var
20FTWND-PM(MPH)             NW 14 G24    NW 10 G20      Lgt/Var
PRECIP AMOUNT                    0.00         0.00         0.00
PRECIP DURATION                                                
MIXING HGT(FT-AGL)               7820                      4210
TRANSPORT WND (MPH)             NW 30                     NW  6
LAL                                 1            1            1
HAINES INDEX                        3            4            4

REMARKS...None.

.FORECAST FOR DAYS 3 THROUGH 7...
.SATURDAY NIGHT...Mostly clear. Lows in the lower 30s. Light winds. 
.SUNDAY...Partly sunny. Highs around 60. South winds around 5 mph. 
.MONDAY...Showers. Lows in the mid 40s. Highs in the mid 50s. Northwest
winds 5 to 10 mph. 
.TUESDAY...Mostly clear. Lows in the upper 20s. Highs in the upper 40s.
Northeast winds 5 to 10 mph. 
.WEDNESDAY...Mostly clear. Lows in the upper 20s. Highs in the mid 50s.
East winds around 5 mph. 
.THURSDAY...Partly cloudy. Lows in the mid 30s. Highs in the mid 60s.
South winds 5 to 10 mph. 

SPC's Fire Weather Web Tool (Excellent!), SPC's Fire Weather Outlooks, NWS Fire Weather WEB, Fire Danger Class Map,
Keetch-Byram Drought Index, ROMAN Web, Haines Index ,
WFAS's 10-hr Dead Fuel Moist., WFAS's 100-hr Dead Fuel Moist., Probablity of Ignition, Visual blackness Map, Palmer Drought Index, HPC's Rainfall Forecast Maps


Hazardous Weather Outlook For MASON County, Kentucky
322 AM EDT Fri Mar 22 2019

 DAY ONE  Today and Tonight.

No hazardous weather is expected at this time.

 DAYS TWO THROUGH SEVEN  Saturday through Thursday.

No hazardous weather is expected at this time.

 SPOTTER INFORMATION STATEMENT  

Spotter activation is not expected at this time.

Latest MASON County, Kentucky Watches, Warnings and Advisories.
Additional Drought Info.: UKAWC Drought Page, Kentucky Drought Watch


7-Day Forecast For MASON County, KY

REST OF TODAY
Partly cloudy, then becoming mostly cloudy early this afternoon, then becoming partly cloudy. A slight chance of showers this afternoon. Highs around 50. Northwest winds 15 to 20 mph. Gusts up to 35 mph late. Chance of rain 20 percent.

TONIGHT
Partly cloudy in the evening, then clearing. Cooler with lows in the mid 20s. Northwest winds 10 to 15 mph.

SATURDAY
Sunny. Highs in the lower 50s. Northwest winds around 5 mph.

SATURDAY NIGHT
Mostly clear. Lows in the lower 30s. North winds around 5 mph, becoming southeast after midnight.

SUNDAY
Partly cloudy in the morning, then mostly cloudy with a slight chance of rain showers in the afternoon. Highs around 60. South winds 5 to 10 mph. Chance of rain 20 percent.

SUNDAY NIGHT
Cloudy. A chance of showers in the evening, then showers likely after midnight. Warmer with lows in the mid 40s. Chance of rain 70 percent.

MONDAY
Showers. Highs in the mid 50s. Chance of rain 80 percent.

MONDAY NIGHT
Partly cloudy in the evening, then clearing. Much cooler with lows in the upper 20s.

TUESDAY
Sunny. Highs in the upper 40s.

TUESDAY NIGHT
Mostly clear. Lows in the upper 20s.

WEDNESDAY
Sunny. Highs in the mid 50s.

WEDNESDAY NIGHT
Mostly clear. Lows in the mid 30s.

THURSDAY
Mostly sunny in the morning, then becoming partly cloudy. Highs in the mid 60s.

Ag Weather Center, Department of Biosystems & Agricultural Engineering, University of Kentucky